Simultaneous Nadir Overpasses (SNOs) Predictions

Prediction of SNOs between GOES-17 and METOP-B Satellite Orbit:

Table of predicted SNOs for the next 14.0 days since TLE Epoch: 5/4/2024
Index Date Time (GOES-17) GOES-17 Lat,Lon METOP-B Lat,Lon Distance(km) Time Diff (sec)
1 05/04/2024 04:21:47 0.01,-104.69 0.00,-104.62 8.58 0
2 05/06/2024 16:21:16 -0.01,-104.71 -0.13,-104.19 58.94 80
3 05/08/2024 04:40:15 0.00,-104.70 -0.88,-108.80 465.59 80
4 05/09/2024 04:16:53 0.00,-104.70 0.21,-103.80 103.71 80
5 05/10/2024 16:35:42 0.01,-104.71 0.79,-108.36 415.23 80
6 05/11/2024 16:17:41 0.01,-104.71 -0.31,-103.36 154.22 80
7 05/13/2024 04:36:38 -0.01,-104.71 -0.75,-107.95 370.18 80
8 05/14/2024 04:13:18 0.00,-104.71 0.40,-102.97 198.95 80
9 05/15/2024 16:32:07 -0.02,-104.72 0.58,-107.54 319.97 80
10 05/16/2024 16:14:06 -0.02,-104.73 -0.52,-102.54 249.78 80
